Location: ??????
(41.3164°N, 22.6615°E)
Time: 05:05:29
(UTC+00:00)

CUBEBUG 2 - Pass Details

Date: 04 July 2022
Orbit: 584 x 692 km, 97.7° (Epoch: 17 August)

Event Time Altitude Azimuth Distance (km) Brightness Sun altitude
Rises 01:47:07 0° 8° (N) 2,843 ? -11.7°
Reaches altitude 10° 01:49:18 10° 4° (N) 1,948 ? -11.4°
Maximum altitude 01:53:26 57° 286° (WNW) 720 ? -10.9°
Enters shadow 01:57:13 13° 209° (SSW) 1,806 ? -10.4°
